Volver al catálogo

CZ-6A DEB

ActivoSSO
NORAD 54320·DEBRIS·🇨🇳 China

Lanzado Nov 11, 2022 desde Taiyuan Satellite Launch Center

Loading…

Próximos Pases (próximas 24 horas)

TLE

ActualizadoSource: Space-Track

Época: Sep 14, 2026, 04:11 UTC

1 54320U 22151BP  26257.17450107 -.00000021  00000-0  15363-4 0  9998
2 54320  98.9621 226.3339 0133031 176.8334 183.3699 13.93066291194555

Sigue CZ-6A DEB en tiempo real con AllMySat

Download on the App Store